Погода в Шымкенте

Поиск расширенной информации на нашем сайте:

Полезная информация:

Новости сайта



14.11.2019
Обновлён Долгосрочный прогноз погоды по России и другим странам хСССР на ноябрь-декабрь 2019 года.
Опубликованы прогностические карты: Предварительный прогноз на декабрь 2019 года, Предварительный прогноз на январь 2020 года, Предварительная схема синоптических процессов на декабрь 2019 г..

11.11.2019
Обновлены Долгосрочный прогноз погоды по России и другим странам хСССР на ноябрь-декабрь 2019 года и Предварительный прогноз на зиму 2019/2020 годов

04.11.2019
Опубликован Долгосрочный прогноз погоды по России и другим странам хСССР на ноябрь 2019 года
Сравнение прогнозируемой аномалии приземной температуры воздуха на ноябрь 2019 года по разным моделям
Предварительный прогноз на зиму 2019/2020 года




Погода в Шымкенте - сегодня

Время (UTC), дата Ветер
(°,м/с) 
Видим.   Явления Облачность Т
(°С)
Тd
(°С)
f(%) Тe
(°С)
Pmin
(гПа)
dP
(гПа)
Po
(мм)
O2
(г/м3)
Тmin Tmax R s Состояние
почвы
00 20.11.19 170 (Ю) н/о    10/6 600 м средняя, верхняя 
[Sc|Ac trans|Ci ing]
+1.9 -2 75 +3  1021.8  712  285           
03 20.11.19 190 (Ю) 20000 м    10/10 600 м кучево-дожд. 
[Cb cap]
+3.5 -2.3 66 +4  1020.8  -0.4  711  283           
06 20.11.19 160 (Ю) 20000 м  в посл. час ливневой дождь  10/10 600 м кучево-дожд. 
[Cb cap]
+6.1 -2.5 54 +7  1020.5  0.3  711  281  +0.4         
09 20.11.19 090 (В) 20000 м    10/10 600 м кучево-дожд. 
[Cb cap]
+8.8 -3.4 42 +10  1017.7  -2  710  277           
12 20.11.19 290 (З) 20000 м    10/10 600 м кучево-дожд. 
[Cb cap]
+5.3 -2.6 57 +6  1019.1  0.4  710  281           
15 20.11.19 320 (СЗ) н/о    10/10 600 м кучево-дожд. 
[Cb cap]
+3.2 +0.4 82 +4  1020.4  0.8  711  283    +8.8  0.0     
18 20.11.19 050 (СВ) н/о  {ливн. осадки}  10/10 600 м кучево-дожд. 
[Cb cap]
+4.3 -0.1 73 +5  1020.3  0.2  711  282    +8.8  0.0     
21 20.11.19 090 (В) н/о  слаб. ливневой дождь  10/10 600 м кучево-дожд. 
[Cb cap]
+3.7 +2.2 90 +5  1020.7  0.2  711  282           
00 21.11.19 090 (В) н/о  слаб. ливневой дождь  10/10 600 м кучево-дожд. 
[Cb cap]
+3 +3 100 +4  1022  1.1  712  283           
03 21.11.19 090 (В) 4000 м  слаб. ливневой дождь  10/10 600 м кучево-дожд. 
[Cb cap]
+2.4 +2.4 100 +3  1023.9  1.5  713  284         
06 21.11.19 270 (З) 2000 м  дымка{ливн. осадки}  10/10 600 м кучево-дожд. 
[Cb cap]
+4.9 +2.5 84 +6  1024.2  714  282  +2.4       
09 21.11.19 тихо ()   20000 м    10/10 600 м кучево-дожд. 
[Cb cap]
+5.2 +0.4 71 +5  1023.6  -0.5  713  282           
12 21.11.19 тихо ()   20000 м    10/10 600 м кучево-дожд. 
[Cb cap]
+4.7 +0.4 74 +5  1023.9  0.1  714  282           
15 21.11.19 090 (В) н/о  дымка  10/10 600 м кучево-дожд. 
[Cb cap]
+4 +1.8 86 +5  1023.8  -0.2  713  283    +5.3  0.0     
18 21.11.19 тихо ()   н/о  дымка  10/10 600 м кучево-дожд. 
[Cb cap]
+2.7 +0.4 85 +3  1024.8  0.6  714  285    +5.3  0.0     
21 21.11.19 тихо ()   н/о  дымка  10/10 600 м кучево-дожд. 
[Cb cap]
+3.3 +2.1 92 +3  1023.6  -0.9  713  284           
00 22.11.19 тихо ()   н/о  дымка  10/10 600 м кучево-дожд. 
[Cb cap]
+2.6 +0.8 88 +3  1024.4  0.5  714  285           
03 22.11.19 140 (ЮВ) 4000 м  дымка  10/10 600 м кучево-дожд. 
[Cb cap]
+1.8 -0.1 87 +3  1026  1.2  714  286           
06 22.11.19 230 (ЮЗ) 20000 м    10/10 600 м кучево-дожд. 
[Cb cap]
+1.6 -3 71 +1  1028.8  2.5  716  287  +1.8         
09 22.11.19 240 (ЮЗ) 20000 м    10/10 600 м кучево-дожд. 
[Cb cap]
+0.9 -4.2 69 1031.1  718  289           
12 22.11.19 220 (ЮЗ) 4000 м  слаб. ливневой снег  10/10 600 м кучево-дожд. 
[Cb cap]
-0.5 -0.6 99 1032.9  1.4  719  290           
15 22.11.19 тихо ()   н/о  слаб. ливневой снег  10/10 600 м кучево-дожд. 
[Cb cap]
-0.6 -0.7 99 -1  1033.6  0.6  719  290    +1.8     
18 22.11.19 тихо ()   н/о  в посл. час ливневой снег  10/10 600 м кучево-дожд. 
[Cb cap]
-0.3 -0.3 100 -0  1033.6  0.1  719  290    +1.8     
21 22.11.19 тихо ()   н/о  дымка  10/10 600 м кучево-дожд. 
[Cb cap]
-0.6 -0.7 99 -1  1034.4  0.6  720  291           
00 23.11.19 тихо ()   н/о  слаб. ливневой снег  10/10 600 м кучево-дожд. 
[Cb cap]
-0.4 -0.5 99 -0  1034.1  -0.2  720  290           
Время (UTC), дата Ветер
(°,м/с) 
Видим.   Явления Облачность Т
(°С)
Тd
(°С)
f(%) Тe
(°С)
Pmin
(гПа)
dP
(гПа)
Po
(мм)
O2
(г/м3)
Тmin Tmax R s Состояние
почвы

Для получения пояснительной информации подведите курсор к названию столбца.

ПОГОДА в Шымкенте - архив

Всё, что Вы хотите узнать о погоде в Шымкенте - удобно и подробно!

Выберите нужную дату (начиная с 1 января 2019* года) и нажмите кнопку "Найти".
Будут отображены архивные сводки погоды по пункту Шымкент, начиная с указанной даты.


Отображать данные в формате CSV (для использования в таблицах Excel)


Внимание! Наш архив погоды предназначен исключительно для личного некоммерческого использования в познавательных целях. Если Вам необходимы официальные справки о состоянии погоды (для производственных, юридических, коммерческих и т.п. целей), обращайтесь в органы Росгидромета.

*Примечание: данная дата относится к архиву по метеостанциям СССР (Россия, СНГ, Балтия).
Архив по метеостанциям Зарубежной Европы и Азии (кроме Китая) хранится 10 дней, по другим регионам земного шара (Китай, Африка, Америка, Австралия, Океания) - 1 день.

Шымкент - район местоположения метеостанции


Название, широта, долгота, высота метеостанции:
Шымкент (город) 42.3°ш. 69.7°д. 604 м над ур. моря [Казахстан]

Дополнительная информация

В oтличие oт бoльшинства пoгoдных сайтoв мы публикуем пoдрoбную метеoинфoрмацию в детальнoм прoфессиoнальнoм фoрмате.

Характеристики температуры и влажнoсти вoздуха измеряются на высoте 2 м в тени вдали oт зданий и деревьев.
Скoрoсть ветра измеряется на высoте 10 м (на урoвне рoста челoвека скoрoсть ветра ниже в 1.5-2 раза). Если метеoстанция нахoдится в гoрoде или в лесу, тo скoрoсть ветра занижена на 2-4 м/с пo сравнению с oткрытым местoм. Скoрoсть ветра над акватoриями крупных рек и oзёр, а также на вершинах хoлмoв на 2-5 м/с выше, чем в oбычных услoвиях.
Атмoсфернoе давление в разных тoчках местнoсти мoжет значительнo oтличаться oт давления на метеoстанции, в зависимoсти oт услoвий рельефа (при пoдъёме на 10 м давление пoнижается примернo на 1 мм рт.ст.).